Location: Moscow
(55.7500°N, 37.5830°E)
Time: 07:44:46
(UTC+03:00)

Transit 2A - Pass Details

Date: 08 December 2021
Orbit: 591 x 967 km, 66.7° (Epoch: 17 January)

Event Time Altitude Azimuth Distance (km) Brightness Sun altitude
Exits shadow 04:44:49 32° 4° (N) 1,605 7.6 -32.1°
Maximum altitude 04:45:07 32° 9° (N) 1,602 7.7 -32.1°
Drops below altitude 10° 04:50:47 10° 72° (ENE) 2,707 9.7 -31.3°
Sets 04:53:39 0° 82° (E) 3,635 10.7 -30.9°
